Location: Ambrosina
(19.9365°S, 43.9833°W)
Time: 02:02:30
(UTC+00:00)

SWIFT - Pass Details

Date: 11 May 2021
Orbit: 544 x 559 km, 20.6° (Epoch: 19 June)

Event Time Altitude Azimuth Distance (km) Brightness Sun altitude
Rises 20:53:43 0° 275° (W) 2,694 7.9 -6.4°
Reaches altitude 10° 20:56:00 10° 275° (W) 1,802 6.6 -6.9°
Maximum altitude 21:00:12 88° 184° (S) 546 2.3 -7.9°
Enters shadow 21:04:16 11° 95° (E) 1,752 4.2 -8.8°
